Flag for U.S.A. Weather past 2 weeks in Garland, Texas, U.S.A.

Now
52 °F

Overcast.


Feels Like: 49 °F
Forecast: 43 / 57 °F
Wind: 9 mph from Southeast

Location: Mesquite Metro Airport

Current Time: Jan 31, 2015 at 3:08:14 PM

Latest Report: Jan 31, 2015 at 1:50 PM


Visibility: 10 mi

Pressure: 30.07 "Hg

Humidity: 62%

Dew point: 39 °F

Location of GarlandLocation

Historic Weather in Garland — Graph

°F

Garland temperature yesterday

Maximum temperature yesterday: 55 °F (at 1:50 PM)
Minimum temperature yesterday: 39 °F (at 7:50 AM)
Average temperature yesterday: 48 °F

Past Weeks' High & Low Weather Summary

 TemperatureHumidityPressure
High81 °F (Jan 28, 2:50 PM)100% (Jan 20, 7:57 AM)30.52 "Hg (Jan 20, 7:57 AM)
Low30 °F (Jan 18, 7:50 AM)20% (Jan 18, 2:48 PM)29.93 "Hg (Jan 20, 3:35 AM)
Average49 °F63%30.15 "Hg
* Reported Jan 16 1:50 PM — Jan 31 1:50 PM, Garland, Weather by CustomWeather, © 2014

Note: Actual official high and low records may vary slightly from our data, if they occured in-between our weather recording intervals... More about our weather records

Advertising

Garland weather history for previous 24 hours

 ConditionsComfort  
Time TempWeatherWind HumidityBarometerVisibility
1:50 PM
Jan 31
52 °FOvercast.9 mph62%30.07 "Hg10 mi
12:50 PM52 °FOvercast.12 mph54%30.12 "Hg10 mi
11:55 AM52 °FMostly cloudy.12 mph50%30.15 "Hg10 mi
10:50 AM50 °FOvercast.13 mph54%30.21 "Hg10 mi
9:50 AM46 °FSunny.12 mph62%30.21 "Hg10 mi
8:50 AM45 °FSunny.12 mph66%30.23 "Hg10 mi
7:50 AM45 °FSunny.6 mph66%30.24 "Hg10 mi
6:50 AM45 °FPassing clouds.5 mph66%30.24 "Hg10 mi
4:35 AM45 °FClear.6 mph61%30.24 "Hg10 mi
4:15 AM46 °FClear.7 mph60%30.24 "Hg10 mi
3:55 AM46 °FClear.7 mph58%30.24 "Hg10 mi
3:35 AM46 °FClear.7 mph57%30.25 "Hg10 mi
3:15 AM46 °FClear.6 mph57%30.25 "Hg10 mi
2:55 AM46 °FClear.6 mph57%30.26 "Hg10 mi
2:35 AM46 °FClear.5 mph57%30.27 "Hg10 mi
2:15 AM47 °FClear.3 mph56%30.28 "Hg10 mi
1:55 AM47 °FClear.6 mph56%30.28 "Hg10 mi
1:35 AM47 °FClear.6 mph54%30.28 "Hg10 mi
1:15 AM47 °FClear.7 mph53%30.28 "Hg10 mi
12:55 AM48 °FClear.7 mph53%30.29 "Hg10 mi
12:35 AM48 °FClear.8 mph52%30.29 "Hg10 mi
12:15 AM48 °FClear.8 mph52%30.30 "Hg10 mi
11:55 PM
Jan 30
49 °FClear.7 mph51%30.30 "Hg10 mi
11:35 PM49 °FClear.8 mph49%30.32 "Hg10 mi
11:15 PM49 °FClear.8 mph48%30.32 "Hg10 mi
10:55 PM49 °FClear.8 mph48%30.32 "Hg10 mi
10:35 PM50 °FClear.8 mph48%30.32 "Hg10 mi
10:15 PM50 °FClear.7 mph49%30.33 "Hg10 mi
8:55 PM51 °FPassing clouds.5 mph45%30.35 "Hg10 mi
7:50 PM52 °FOvercast.8 mph44%30.34 "Hg10 mi
6:55 PM52 °FClear.5 mph41%30.34 "Hg10 mi
4:50 PM55 °FSunny.6 mph36%30.35 "Hg10 mi
3:50 PM55 °FSunny.8 mph38%30.36 "Hg10 mi
Weather by CustomWeather, © 2014

See weather overviewHow to use our weather pages